Location: Kitt Peak
(31.9633°N, 111.6000°W)
Time: 13:09:47
(UTC-07:00)

Amateur Radio Satellites - All Passes

Search period start: 25 July 2016 12:39
Search period end: 26 July 2016 12:39
Location: Kitt Peak, 31.9633°N, 111.6000°W

Satellite Date Start Highest point End Downlink Frequencies (MHz)
Time Altitude Azimuth
Oscar 19 25 Jul 12:48:51 12:53:46 50° 74° (ENE) 12:58:42 437.125/150
UKube-1 25 Jul 12:50:17 12:54:34 62° 284° (WNW) 12:58:49 .
ESTCUBE 1 25 Jul 12:53:25 12:56:30 19° 291° (WNW) 12:59:36 437.505/2401.250
TISAT 1 25 Jul 12:55:24 12:58:47 23° 96° (E) 13:02:10 437.305
AO-85 25 Jul 13:07:14 13:12:11 37° 112° (ESE) 13:17:01 145.980
50 SAT 25 Jul 13:09:41 13:11:23 13° 291° (WNW) 13:13:05 437.505
VELOX 1 25 Jul 13:18:47 13:21:38 17° 291° (WNW) 13:24:31 145.980
JAS-2 25 Jul 13:20:27 13:25:28 24° 262° (W) 13:30:04 435.910
CUBEBUG 1 25 Jul 13:26:23 13:28:01 12° 293° (WNW) 13:29:39 437.445
SPROUT 25 Jul 13:28:10 13:31:46 26° 288° (WNW) 13:35:21 437.525
SWISSCUBE 25 Jul 13:35:58 13:38:01 13° 93° (E) 13:40:03 437.505
Gurwin Techsat 1B 25 Jul 13:52:48 13:58:07 86° 256° (WSW) 14:03:28 435.225
BEESAT 25 Jul 13:56:19 13:59:47 20° 96° (E) 14:03:14 436.000
AIST 1 25 Jul 14:00:15 14:03:58 29° 281° (W) 14:07:40
ITUPSAT 1 25 Jul 14:17:24 14:21:44 34° 99° (E) 14:26:00 437.325
ITAMSAT 1 25 Jul 14:18:42 14:23:46 53° 73° (ENE) 14:28:51 435.822/435.867
Oscar 19 25 Jul 14:30:34 14:33:18 14° 266° (W) 14:36:02 437.125/150
TISAT 1 25 Jul 14:30:59 14:34:17 22° 289° (WNW) 14:37:35 437.305
CUSAT 1 25 Jul 14:41:58 14:45:00 52° 82° (E) 14:48:48 437.405
RS-15 25 Jul 14:44:36 14:55:10 31° 45° (NE) 15:05:35 29.354- 29.394
AO-85 25 Jul 14:48:14 14:52:42 26° 305° (NW) 14:57:04 145.980
DANDE 25 Jul 14:49:26 14:49:40 10° 78° (ENE) 14:49:55 436.750
AO-7 25 Jul 14:52:00 15:00:07 58° 68° (ENE) 15:08:15 29.400- 29.500
SWISSCUBE 25 Jul 15:11:26 15:16:01 49° 286° (WNW) 15:20:35 437.505
GONETS M04 25 Jul 15:17:42 15:26:20 76° 93° (E) 15:35:01
Cosmos 2499 25 Jul 15:19:48 15:28:23 58° 91° (E) 15:36:56 435.465 / 435.565
BEESAT 25 Jul 15:33:21 15:37:33 32° 289° (WNW) 15:41:44 436.000
ITUPSAT 1 25 Jul 15:55:54 15:59:16 20° 292° (WNW) 16:02:38 437.325
ITAMSAT 1 25 Jul 16:00:43 16:03:27 14° 266° (W) 16:06:12 435.822/435.867
PHONESAT 2.4 25 Jul 16:02:39 16:05:11 24° 144° (SE) 16:07:45 2401.200-2431.200
KKS-1 25 Jul 16:09:12 16:13:40 66° 101° (ESE) 16:18:07 437.445
SO-50 25 Jul 16:12:38 16:12:57 10° 46° (NE) 16:13:16 436.795
HORYU 2 25 Jul 16:26:23 16:30:45 55° 75° (ENE) 16:35:10 437.375
MOZHAYETS 4 25 Jul 16:30:13 16:34:45 64° 285° (WNW) 16:39:14
DANDE 25 Jul 16:31:19 16:32:15 11° 265° (W) 16:33:13 436.750
AO-7 25 Jul 16:46:30 16:53:07 26° 263° (W) 16:59:47 29.400- 29.500
STARS 25 Jul 16:52:57 16:57:24 80° 282° (WNW) 17:01:49 437.465
RS-15 25 Jul 16:56:29 17:08:48 76° 247° (WSW) 17:20:49 29.354- 29.394
Cubesat XI-IV 25 Jul 17:00:41 17:04:29 20° 67° (ENE) 17:08:18 437.490
Cosmos 2499 25 Jul 17:14:41 17:21:49 27° 286° (WNW) 17:28:56 435.465 / 435.565
GONETS M04 25 Jul 17:18:25 17:23:56 18° 290° (WNW) 17:29:30
CUTE-I 25 Jul 17:23:47 17:28:34 34° 70° (ENE) 17:33:22 437.470
GOMX 1 25 Jul 17:24:20 17:27:15 19° 70° (ENE) 17:30:13 467.674
LilacSat-2 25 Jul 17:26:39 17:29:54 27° 73° (ENE) 17:33:12 437.200
PHONESAT 2.4 25 Jul 17:38:38 17:41:35 43° 338° (NNW) 17:44:33 2401.200-2431.200
NOAA 18 25 Jul 17:44:11 17:49:33 57° 73° (ENE) 17:54:59 137.9125
CUBESAT XI-V 25 Jul 17:44:33 17:49:10 89° 102° (ESE) 17:53:48 437.345
NOAA 15 25 Jul 17:49:17 17:54:33 86° 75° (ENE) 17:59:49 137.62
SO-50 25 Jul 17:49:26 17:54:01 81° 244° (WSW) 17:58:28 436.795
BRITE-PL 25 Jul 17:49:49 17:54:02 76° 259° (W) 17:58:10 437.365/2234.400
BEESAT 3 25 Jul 17:55:00 17:58:35 35° 113° (ESE) 18:02:11 437.485
BEESAT 2 25 Jul 17:58:26 18:01:14 19° 110° (ESE) 18:04:04 435.950
HO-68 25 Jul 18:18:08 18:22:51 19° 61° (ENE) 18:27:35 435.675
STRAND 1 25 Jul 18:33:07 18:35:47 14° 94° (E) 18:38:26 437.568
Cubesat XI-IV 25 Jul 18:39:07 18:44:11 42° 261° (W) 18:49:17 437.490
PCSat 25 Jul 18:50:12 18:55:25 52° 111° (ESE) 19:00:41 145.827
SEEDS 25 Jul 18:58:51 19:01:07 14° 69° (ENE) 19:03:22 437.485
GOMX 1 25 Jul 19:01:46 19:05:10 25° 264° (W) 19:08:39 467.674
LilacSat-2 25 Jul 19:01:54 19:04:11 15° 266° (W) 19:06:30 437.200
DOVE 4 25 Jul 19:02:23 19:06:31 64° 260° (W) 19:10:52 437.250
CUTE-I 25 Jul 19:04:19 19:08:34 24° 264° (W) 19:12:51 437.470
CUBEBUG 2 25 Jul 19:12:00 19:12:39 10° 65° (ENE) 19:13:18 437.445
COMPASS 1 25 Jul 19:13:49 19:16:06 14° 69° (ENE) 19:18:23 437.405
RS-15 25 Jul 19:14:16 19:19:10 13° 263° (W) 19:24:02 29.354- 29.394
PHONESAT 2.4 25 Jul 19:16:23 19:18:33 17° 354° (N) 19:20:44 2401.200-2431.200
CINEMA 3 25 Jul 19:26:02 19:30:21 58° 75° (ENE) 19:34:54 145.822/145.860
NOAA 18 25 Jul 19:27:31 19:30:29 15° 266° (W) 19:33:28 137.9125
YUBILEINY 25 Jul 19:31:58 19:37:55 19° 70° (ENE) 19:43:47 435.215
BEESAT 3 25 Jul 19:34:06 19:36:22 15° 308° (NW) 19:38:38 437.485
BEESAT 2 25 Jul 19:35:32 19:38:51 26° 304° (WNW) 19:42:13 435.950
CANX-2 25 Jul 19:36:06 19:40:22 73° 78° (ENE) 19:44:38 2200.000
AAUSAT CUBESAT 2 25 Jul 19:42:34 19:45:59 25° 72° (ENE) 19:49:24 437.432
AIST 2 25 Jul 19:46:09 19:47:42 12° 108° (ESE) 19:49:15 435.215
CUTE 1.7 + AOD 2 25 Jul 19:49:51 19:54:08 88° 258° (WSW) 19:58:26 437.475
O/OREOS (USA 219) 25 Jul 20:02:18 20:06:26 38° 104° (ESE) 20:10:35 437.305
HO-68 25 Jul 20:02:43 20:09:50 69° 257° (WSW) 20:17:01 435.675
STRAND 1 25 Jul 20:10:14 20:15:10 50° 287° (WNW) 20:20:04 437.568
UWE-3 25 Jul 20:25:38 20:30:00 51° 75° (ENE) 20:34:29 435.000/436.395/437.385
Cosmos 2504 25 Jul 20:26:53 20:27:44 10° 64° (ENE) 20:28:33 435.465 / 435.565
ZACube-1 25 Jul 20:30:17 20:34:22 36° 73° (ENE) 20:38:33 437.345
FUNcube-1 25 Jul 20:30:21 20:34:23 33° 73° (ENE) 20:38:29 145.935
SEEDS 25 Jul 20:32:32 20:36:27 36° 262° (W) 20:40:22 437.485
PCSat 25 Jul 20:35:23 20:39:05 18° 306° (NW) 20:42:48 145.827
CUBEBUG 2 25 Jul 20:44:11 20:48:37 62° 259° (W) 20:53:14 437.445
Cosmos 2491 25 Jul 20:46:45 20:54:35 39° 87° (E) 21:02:24 435.465 / 435.565
COMPASS 1 25 Jul 20:47:28 20:51:19 35° 262° (W) 20:55:09 437.405
ISS 25 Jul 20:51:55 20:55:09 76° 134° (SE) 20:58:24 145.825
PHONESAT 2.4 25 Jul 20:53:22 20:55:45 20° 11° (N) 20:58:07 2401.200-2431.200
Oscar 11 25 Jul 21:14:57 21:19:14 61° 259° (W) 21:23:33 145.826/435.025
AAUSAT CUBESAT 2 25 Jul 21:18:23 21:21:23 19° 265° (W) 21:24:24 437.432
M-CUBED/EXP-1 PRIME 25 Jul 21:21:02 21:24:35 67° 72° (ENE) 21:28:28 437.505
AIST 2 25 Jul 21:21:50 21:25:44 42° 301° (WNW) 21:29:41 435.215
PRISM 25 Jul 21:23:46 21:27:45 52° 285° (WNW) 21:31:44 437.425
YUBILEINY 25 Jul 21:26:38 21:35:26 73° 267° (W) 21:44:09 435.215
O/OREOS (USA 219) 25 Jul 21:43:21 21:45:57 15° 299° (WNW) 21:48:34 437.305
TIGRISAT 25 Jul 21:46:44 21:49:37 16° 94° (E) 21:52:27 435.000
AUBIESAT-1 25 Jul 21:48:30 21:52:06 63° 255° (WSW) 21:56:01 437.475
DELFI C3 25 Jul 21:53:21 21:57:12 47° 261° (W) 22:01:02 145.870
HUMSAT D 25 Jul 21:58:32 22:02:50 81° 76° (ENE) 22:07:09 437.325/437.525
UNISAT 6 25 Jul 22:01:43 22:05:36 26° 96° (E) 22:09:24 437.425
UWE-3 25 Jul 22:05:17 22:06:42 11° 268° (W) 22:08:08 435.000/436.395/437.385
FUNcube-1 25 Jul 22:07:41 22:10:39 17° 266° (W) 22:13:39 145.935
ZACube-1 25 Jul 22:07:56 22:10:43 16° 266° (W) 22:13:32 437.345
ESTCUBE 1 25 Jul 22:11:46 22:14:38 17° 69° (ENE) 22:17:30 437.505/2401.250
Cosmos 2504 25 Jul 22:14:25 22:22:32 78° 83° (E) 22:30:01 435.465 / 435.565
PHONESAT 2.4 25 Jul 22:29:31 22:32:35 71° 26° (NNE) 22:35:38 2401.200-2431.200
ISS 25 Jul 22:30:55 22:31:55 11° 329° (NNW) 22:32:54 145.825
VELOX 1 25 Jul 22:35:04 22:37:53 17° 69° (ENE) 22:40:42 145.980
ANTELSAT 25 Jul 22:39:40 22:44:18 76° 102° (ESE) 22:48:48 437.575/2403.000
CUBEBUG 1 25 Jul 22:39:49 22:43:07 22° 70° (ENE) 22:46:25 437.445
Cosmos 2491 25 Jul 22:43:25 22:51:16 37° 283° (WNW) 22:59:10 435.465 / 435.565
QB50P2 25 Jul 22:46:51 22:48:01 11° 93° (E) 22:49:11 145.880/145.840
POLYITAN 1 25 Jul 22:49:20 22:50:41 11° 93° (E) 22:52:01 437.675
AISAT 25 Jul 23:18:01 23:22:19 59° 75° (ENE) 23:26:38 437.250
TIGRISAT 25 Jul 23:22:09 23:26:23 36° 287° (WNW) 23:30:30 435.000
DX 1 25 Jul 23:23:15 23:27:23 45° 74° (ENE) 23:31:31 434.975-435.025
AO-85 25 Jul 23:24:19 23:28:35 86° 61° (ENE) 23:32:31 145.980
NANOSAT C BR1 25 Jul 23:31:36 23:35:34 36° 99° (E) 23:39:30 145.865
DUCHIFAT 1 25 Jul 23:36:36 23:40:36 39° 99° (E) 23:44:35 145.980
UNISAT 6 25 Jul 23:38:32 23:42:08 23° 290° (WNW) 23:45:40 437.425
UKube-1 25 Jul 23:39:41 23:43:53 56° 74° (ENE) 23:48:06 .
50 SAT 25 Jul 23:40:26 23:44:04 63° 259° (W) 23:47:43 437.505
ESTCUBE 1 25 Jul 23:47:01 23:51:07 35° 262° (W) 23:55:14 437.505/2401.250
QB50P1 25 Jul 23:52:52 23:57:09 75° 101° (E) 00:01:25 145.935-145.965
BUGSAT 1 25 Jul 23:57:37 00:01:20 29° 98° (E) 00:05:01 437.445
POPSAT HIP 1 25 Jul 23:59:10 00:03:29 88° 112° (ESE) 00:07:45 437.405
PHONESAT 2.4 26 Jul 00:07:11 00:08:48 13° 219° (SW) 00:10:24 2401.200-2431.200
VELOX 1 26 Jul 00:10:07 00:14:02 33° 262° (W) 00:18:00 145.980
Cosmos 2504 26 Jul 00:10:48 00:14:41 15° 281° (W) 00:18:28 435.465 / 435.565
AIST 1 26 Jul 00:11:37 00:15:41 38° 81° (E) 00:19:44
CUBEBUG 1 26 Jul 00:15:45 00:19:14 24° 263° (W) 00:22:45 437.445
SPROUT 26 Jul 00:15:55 00:20:08 66° 259° (WSW) 00:24:24 437.525
QB50P2 26 Jul 00:19:54 00:24:00 46° 286° (WNW) 00:28:04 145.880/145.840
POLYITAN 1 26 Jul 00:22:33 00:26:39 45° 286° (WNW) 00:30:43 437.675
JAS-2 26 Jul 00:32:28 00:37:42 51° 101° (ESE) 00:43:24 435.910
BEESAT 26 Jul 00:59:07 01:01:36 14° 66° (ENE) 01:04:05 436.000
DX 1 26 Jul 01:02:23 01:03:44 11° 266° (W) 01:05:06 434.975-435.025
Oscar 19 26 Jul 01:05:43 01:10:02 26° 97° (E) 01:14:21 437.125/150
NANOSAT C BR1 26 Jul 01:08:36 01:10:56 15° 292° (WNW) 01:13:15 145.865
DUCHIFAT 1 26 Jul 01:13:47 01:15:54 14° 292° (WNW) 01:18:00 145.980
TISAT 1 26 Jul 01:16:42 01:20:48 56° 260° (W) 01:24:56 437.305
ITUPSAT 1 26 Jul 01:19:48 01:23:35 24° 70° (ENE) 01:27:23 437.325
Cosmos 2499 26 Jul 01:21:42 01:24:20 12° 66° (ENE) 01:26:54 435.465 / 435.565
JUGNU 26 Jul 01:22:00 01:25:50 18° 167° (SSE) 01:29:39 437.505
BUGSAT 1 26 Jul 01:33:32 01:36:27 18° 290° (WNW) 01:39:21 437.445
GONETS M04 26 Jul 01:34:47 01:42:12 29° 74° (ENE) 01:49:35
AIST 1 26 Jul 01:50:57 01:52:51 13° 273° (W) 01:54:45
SWISSCUBE 26 Jul 02:12:33 02:17:21 77° 258° (WSW) 02:22:09 437.505
Gurwin Techsat 1B 26 Jul 02:14:04 02:19:18 57° 101° (E) 02:24:30 435.225
JAS-2 26 Jul 02:19:14 02:22:27 16° 292° (WNW) 02:25:48 435.910
BEESAT 26 Jul 02:34:18 02:38:55 48° 260° (W) 02:43:33 436.000
ITAMSAT 1 26 Jul 02:36:58 02:41:23 28° 97° (E) 02:45:45 435.822/435.867
Oscar 19 26 Jul 02:44:50 02:49:14 29° 290° (WNW) 02:53:38 437.125/150
ITUPSAT 1 26 Jul 02:57:07 03:01:14 28° 263° (W) 03:05:21 437.325
AO-7 26 Jul 03:00:15 03:06:45 25° 97° (E) 03:13:10 29.400- 29.500
KKS-1 26 Jul 03:02:39 03:06:34 32° 72° (ENE) 03:10:31 437.445
JUGNU 26 Jul 03:09:32 03:14:16 25° 177° (S) 03:18:58 437.505
Cosmos 2499 26 Jul 03:10:48 03:18:36 90° 76° (ENE) 03:25:49 435.465 / 435.565
ISS 26 Jul 03:25:08 03:26:03 11° 31° (NNE) 03:26:57 145.825
MOZHAYETS 4 26 Jul 03:26:45 03:31:20 66° 77° (ENE) 03:35:57
GONETS M04 26 Jul 03:30:49 03:39:11 50° 270° (W) 03:47:35
SRMSAT 26 Jul 03:36:18 03:40:00 17° 167° (SSE) 03:43:42 437.500
CUSAT 1 26 Jul 03:40:03 03:44:56 78° 279° (W) 03:48:36 437.405
PCSat 26 Jul 03:44:15 03:47:34 16° 53° (NE) 03:50:51 145.827
STARS 26 Jul 03:44:36 03:48:47 46° 74° (ENE) 03:53:00 437.465
DANDE 26 Jul 03:48:56 03:55:02 47° 97° (E) 03:59:42 436.750
BEESAT 3 26 Jul 03:53:44 03:57:41 70° 62° (ENE) 04:01:36 437.485
Gurwin Techsat 1B 26 Jul 03:55:52 03:58:42 15° 295° (WNW) 04:01:33 435.225
BEESAT 2 26 Jul 03:57:23 04:01:06 36° 58° (ENE) 04:04:48 435.950
ITAMSAT 1 26 Jul 04:16:23 04:20:42 27° 291° (WNW) 04:25:02 435.822/435.867
HORYU 2 26 Jul 04:23:33 04:26:13 15° 95° (E) 04:28:51 437.375
KKS-1 26 Jul 04:40:12 04:43:08 17° 265° (W) 04:46:05 437.445
CUBESAT XI-V 26 Jul 04:42:51 04:47:18 48° 74° (ENE) 04:51:44 437.345
AO-7 26 Jul 04:51:39 04:59:48 60° 291° (WNW) 05:07:54 29.400- 29.500
JUGNU 26 Jul 04:58:11 05:02:43 23° 187° (S) 05:07:14 437.505
ISS 26 Jul 04:59:34 05:02:50 78° 224° (SW) 05:06:03 145.825
RS-15 26 Jul 05:03:48 05:12:25 26° 102° (ESE) 05:21:19 29.354- 29.394
Cosmos 2499 26 Jul 05:08:40 05:10:18 11° 282° (WNW) 05:11:56 435.465 / 435.565
SRMSAT 26 Jul 05:23:53 05:28:34 24° 176° (S) 05:33:15 437.500
STARS 26 Jul 05:23:54 05:25:20 11° 267° (W) 05:26:45 437.465
Cubesat XI-IV 26 Jul 05:24:49 05:25:55 11° 92° (E) 05:27:00 437.490
PCSat 26 Jul 05:26:00 05:31:20 60° 248° (WSW) 05:36:38 145.827
GOMX 1 26 Jul 05:31:39 05:32:56 11° 92° (E) 05:34:15 467.674
DANDE 26 Jul 05:34:00 05:37:34 16° 281° (W) 05:40:40 436.750
BEESAT 2 26 Jul 05:36:39 05:38:33 13° 252° (WSW) 05:40:28 435.950
STRAND 1 26 Jul 05:44:58 05:47:24 13° 65° (ENE) 05:49:50 437.568
CUTE-I 26 Jul 05:46:23 05:50:14 20° 95° (E) 05:54:03 437.470
AIST 2 26 Jul 05:47:48 05:51:21 26° 56° (NE) 05:54:53 435.215
BRITE-PL 26 Jul 05:57:56 06:02:43 50° 100° (E) 06:07:52 437.365/2234.400
HORYU 2 26 Jul 05:58:44 06:02:49 36° 288° (WNW) 06:06:53 437.375
NOAA 15 26 Jul 06:09:28 06:14:33 48° 100° (E) 06:19:38 137.62
NOAA 18 26 Jul 06:11:29 06:16:34 36° 99° (E) 06:21:35 137.9125
O/OREOS (USA 219) 26 Jul 06:16:57 06:21:05 34° 67° (ENE) 06:25:14 437.305
CUBESAT XI-V 26 Jul 06:23:01 06:24:51 12° 267° (W) 06:26:41 437.345
LilacSat-2 26 Jul 06:38:16 06:42:09 82° 102° (ESE) 06:45:58 437.200
JUGNU 26 Jul 06:48:14 06:51:06 14° 196° (SSW) 06:53:58 437.505
Cubesat XI-IV 26 Jul 07:01:03 07:06:22 70° 286° (WNW) 07:11:39 437.490
DOVE 4 26 Jul 07:05:07 07:10:12 52° 100° (E) 07:15:21 437.250
Cosmos 2491 26 Jul 07:05:25 07:09:25 14° 67° (ENE) 07:13:25 435.465 / 435.565
GOMX 1 26 Jul 07:06:09 07:11:14 70° 284° (WNW) 07:16:35 467.674
RS-15 26 Jul 07:12:18 07:23:36 72° 300° (WNW) 07:35:38 29.354- 29.394
SRMSAT 26 Jul 07:12:38 07:17:11 23° 186° (S) 07:21:43 437.500
STRAND 1 26 Jul 07:20:57 07:26:01 59° 259° (W) 07:31:06 437.568
CUTE-I 26 Jul 07:25:25 07:30:20 39° 289° (WNW) 07:35:15 437.470
CINEMA 3 26 Jul 07:26:02 07:30:00 23° 95° (E) 07:33:54 145.822/145.860
AIST 2 26 Jul 07:26:31 07:29:39 21° 250° (WSW) 07:32:46 435.215
CANX-2 26 Jul 07:27:06 07:29:57 18° 95° (E) 07:32:47 2200.000
HO-68 26 Jul 07:36:25 07:42:36 31° 98° (E) 07:48:44 435.675
BRITE-PL 26 Jul 07:38:06 07:40:50 15° 291° (WNW) 07:43:41 437.365/2234.400
CUTE 1.7 + AOD 2 26 Jul 07:40:22 07:43:39 22° 96° (E) 07:46:56 437.475
NOAA 15 26 Jul 07:50:37 07:53:53 17° 294° (WNW) 07:57:10 137.62
NOAA 18 26 Jul 07:52:36 07:56:57 24° 293° (WNW) 08:01:17 137.9125
O/OREOS (USA 219) 26 Jul 07:57:17 08:00:09 17° 260° (W) 08:03:03 437.305
SO-50 26 Jul 07:58:13 08:03:05 80° 297° (WNW) 08:07:59 436.795
PRISM 26 Jul 08:08:05 08:12:03 52° 75° (ENE) 08:16:01 437.425
SEEDS 26 Jul 08:20:57 08:24:59 49° 100° (E) 08:29:00 437.485
UWE-3 26 Jul 08:21:40 08:24:24 16° 93° (E) 08:27:06 435.000/436.395/437.385
YUBILEINY 26 Jul 08:26:39 08:33:30 26° 84° (E) 08:40:22 435.215
COMPASS 1 26 Jul 08:34:45 08:38:46 49° 100° (E) 08:42:45 437.405
CUBEBUG 2 26 Jul 08:40:06 08:44:33 41° 99° (E) 08:48:51 437.445
DOVE 4 26 Jul 08:44:21 08:47:25 16° 292° (WNW) 08:50:30 437.250
UNISAT 6 26 Jul 08:56:58 08:59:22 14° 67° (ENE) 09:01:46 437.425
Cosmos 2491 26 Jul 08:58:35 09:07:22 87° 84° (E) 09:16:11 435.465 / 435.565
Cosmos 2504 26 Jul 08:59:25 09:01:20 11° 77° (ENE) 09:03:15 435.465 / 435.565
CANX-2 26 Jul 09:02:11 09:05:46 28° 288° (WNW) 09:09:19 2200.000
CINEMA 3 26 Jul 09:02:39 09:07:03 31° 288° (WNW) 09:11:23 145.822/145.860
SRMSAT 26 Jul 09:02:44 09:05:43 14° 196° (SSW) 09:08:43 437.500
AAUSAT CUBESAT 2 26 Jul 09:04:04 09:08:11 88° 284° (WNW) 09:12:17 437.432
Oscar 11 26 Jul 09:07:13 09:11:08 33° 98° (E) 09:15:01 145.826/435.025
CUTE 1.7 + AOD 2 26 Jul 09:16:06 09:19:21 22° 289° (WNW) 09:22:37 437.475
HO-68 26 Jul 09:23:39 09:30:18 42° 292° (WNW) 09:36:55 435.675
RS-15 26 Jul 09:30:46 09:38:42 20° 326° (NW) 09:46:56 29.354- 29.394
AUBIESAT-1 26 Jul 09:32:45 09:35:32 16° 98° (E) 09:38:17 437.475
ANTELSAT 26 Jul 09:33:24 09:37:36 36° 73° (ENE) 09:41:52 437.575/2403.000
DELFI C3 26 Jul 09:35:55 09:39:21 28° 97° (E) 09:42:46 145.870
HUMSAT D 26 Jul 09:47:59 09:50:51 18° 95° (E) 09:53:42 437.325/437.525
UWE-3 26 Jul 09:56:44 10:00:57 37° 287° (WNW) 10:05:04 435.000/436.395/437.385
FUNcube-1 26 Jul 09:59:02 10:03:26 59° 285° (WNW) 10:07:42 145.935
ZACube-1 26 Jul 09:59:25 10:03:48 54° 285° (WNW) 10:08:03 437.345
SEEDS 26 Jul 09:59:41 10:00:11 10° 293° (WNW) 10:00:42 437.485
COMPASS 1 26 Jul 10:13:33 10:13:50 10° 293° (WNW) 10:14:07 437.405
TIGRISAT 26 Jul 10:14:57 10:19:31 77° 259° (WSW) 10:24:11 435.000
CUBEBUG 2 26 Jul 10:17:58 10:20:44 16° 292° (WNW) 10:23:28 437.445
NANOSAT C BR1 26 Jul 10:20:16 10:22:42 15° 68° (ENE) 10:25:08 145.865
YUBILEINY 26 Jul 10:21:09 10:29:39 55° 280° (W) 10:38:16 435.215
DUCHIFAT 1 26 Jul 10:24:52 10:27:27 16° 69° (ENE) 10:30:02 145.980
UNISAT 6 26 Jul 10:31:13 10:35:36 46° 261° (W) 10:40:06 437.425
M-CUBED/EXP-1 PRIME 26 Jul 10:38:27 10:43:09 71° 289° (WNW) 10:47:47 437.505
QB50P1 26 Jul 10:40:45 10:44:22 28° 72° (ENE) 10:48:02 145.935-145.965
JAS-2 26 Jul 10:43:28 10:45:47 12° 66° (ENE) 10:48:00 435.910
Oscar 11 26 Jul 10:44:21 10:46:56 16° 291° (WNW) 10:49:32 145.826/435.025
Cosmos 2504 26 Jul 10:44:26 10:53:11 76° 93° (E) 11:02:03 435.465 / 435.565
BUGSAT 1 26 Jul 10:45:23 10:46:11 10° 67° (ENE) 10:46:59 437.445
POPSAT HIP 1 26 Jul 10:46:54 10:50:42 33° 72° (ENE) 10:54:32 437.405
Cosmos 2491 26 Jul 10:58:51 11:02:57 14° 280° (W) 11:07:04 435.465 / 435.565
AUBIESAT-1 26 Jul 11:05:40 11:10:03 42° 291° (WNW) 11:14:23 437.475
QB50P2 26 Jul 11:07:08 11:11:19 67° 77° (ENE) 11:15:34 145.880/145.840
POLYITAN 1 26 Jul 11:09:45 11:13:58 68° 76° (ENE) 11:18:13 437.675
ANTELSAT 26 Jul 11:11:25 11:14:22 17° 266° (W) 11:17:21 437.575/2403.000
DELFI C3 26 Jul 11:11:37 11:13:55 15° 290° (WNW) 11:16:13 145.870
AISAT 26 Jul 11:14:05 11:16:59 17° 95° (E) 11:19:52 437.250
50 SAT 26 Jul 11:15:12 11:17:08 14° 95° (E) 11:19:04 437.505
DX 1 26 Jul 11:18:22 11:19:56 12° 94° (E) 11:21:29 434.975-435.025
HUMSAT D 26 Jul 11:22:56 11:26:26 26° 288° (WNW) 11:29:54 437.325/437.525
UKube-1 26 Jul 11:33:12 11:35:26 14° 94° (E) 11:37:40 .
ESTCUBE 1 26 Jul 11:43:48 11:48:16 69° 101° (E) 11:52:44 437.505/2401.250
NANOSAT C BR1 26 Jul 11:54:14 11:58:05 34° 262° (W) 12:01:58 145.865
DUCHIFAT 1 26 Jul 11:59:04 12:02:49 32° 262° (W) 12:06:38 145.980
VELOX 1 26 Jul 12:04:22 12:08:48 66° 102° (ESE) 12:13:13 145.980
SPROUT 26 Jul 12:06:59 12:10:46 30° 97° (E) 12:14:32 437.525
CUBEBUG 1 26 Jul 12:07:59 12:12:25 87° 109° (ESE) 12:16:50 437.445
BUGSAT 1 26 Jul 12:17:10 12:21:03 46° 260° (W) 12:25:01 437.445
QB50P1 26 Jul 12:17:15 12:20:07 18° 265° (W) 12:23:00 145.935-145.965
Oscar 19 26 Jul 12:18:10 12:22:12 24° 69° (ENE) 12:26:14 437.125/150
JAS-2 26 Jul 12:24:00 12:30:23 75° 257° (WSW) 12:36:03 435.910
POPSAT HIP 1 26 Jul 12:24:03 12:26:31 15° 266° (W) 12:29:00 437.405
